Presure
263 230 251 232 267 255 238 247 237 231 224 231 237 242 231 233 235 241 237 354 362 215 354 343 238 237 237 175 173 226 222 219 232 223 222 226 209 220 223 211 214 198 199 190 200 197 192
290 233 247 245 265 262 247 229 239 237 229 216 223 245 242 234 226 233 233 275 332 332 331 326 258 251 136 221 205 184 222 219 216 211 217 214 217 222 214 215 207 190 198 190 195 195 190
234 194 227 241 224 265 251 238 224 236 229 229 224 215 244 234 227 226 231 258 310 311 311 307 299 295 222 141 143 221 213 201 142 215 221 219 213 212 215 210 201 191 196 201 195 195 198
283 265 316 249 249 263 244 247 236 216 233 226 225 217 214 241 224 226 231 256 291 291 291 282 265 263 248 147 131 208 215 217 219 136 219 211 213 213 210 207 196 190 199 192 191 195 193
335 331 316 319 242 228 248 248 230 224 222 226 225 223 212 239 221 224 217 254 250 276 235 256 252 131 170 223 133 217 127 216 226 223 183 212 210 209 207 205 195 191 198 199 192 193 187
339 326 334 332 320 246 227 250 237 234 219 229 225 223 214 237 220 224 216 252 253 254 233 238 245 166 204 208 215 175 194 222 211 218 196 197 206 205 206 204 189 182 193 191 190 190 193
338 152 332 324 319 288 236 226 225 224 238 231 229 225 215 233 222 219 213 228 243 257 242 250 245 199 130 201 212 204 198 137 217 215 213 154 208 204 204 195 186 186 193 193 191 195 191
347 331 321 314 311 304 242 245 220 221 237 220 224 222 219 216 225 215 213 213 245 236 231 125 189 199 187 189 204 199 206 220 176 215 210 205 178 203 197 189 192 180 186 194 188 189 191
312 295 306 305 300 306 294 236 229 226 217 229 225 225 222 212 228 214 214 208 223 241 227 223 224 222 203 200 158 166 205 218 176 132 133 207 204 197 198 195 200 186 189 192 194 187 188
325 289 290 295 294 306 288 247 241 227 222 236 226 223 231 216 221 216 210 213 208 226 237 222 224 217 209 201 196 195 192 211 215 210 207 186 130 196 197 192 195 200 178 197 192 194 187
302 300 282 283 283 279 276 271 235 232 242 218 210 221 223 225 210 224 207 211 209 212 224 240 223 216 211 200 202 197 194 194 194 194 145 188 157 189 192 187 187 188 190 184 194 193 194
188 304 282 281 292 295 278 279 279 238 235 218 220 226 225 215 220 223 218 204 211 214 202 212 220 220 216 210 207 204 202 201 196 194 193 191 191 190 191 134 127 165 189 193 191 186 196
288 288 288 282 284 275 289 285 275 278 260 247 234 226 208 218 215 212 223 213 204 204 205 201 197 221 214 219 217 209 204 203 202 198 195 195 194 195 197 199 194 181 205 195 148 196 176
303 306 285 285 268 279 271 285 286 299 269 234 217 231 220 210 213 222 208 218 213 200 202 203 205 201 199 221 215 216 230 227 214 209 208 207 211 213 213 211 209 208 207 202 199 197 197
317 295 286 287 272 279 270 272 278 278 269 258 231 225 234 220 218 213 216 222 213 205 200 202 208 207 200 199 199 206 217 220 219 213 210 207 211 212 209 213 208 207 209 206 203 200 200
325 308 295 293 293 270 277 267 274 271 272 276 240 225 217 219 225 213 215 209 216 214 209 203 202 199 208 209 201 198 201 197 201 205 211 218 219 209 210 207 202 203 205 205 205 201 203
287 284 298 286 288 273 280 271 275 268 279 272 258 260 226 220 216 224 213 216 210 211 211 207 204 196 199 195 201 216 205 197 198 197 144 196 195 189 196 202 207 209 208 209 202 202 199
283 290 279 293 283 285 275 267 267 267 277 276 291 247 226 229 226 217 219 218 217 206 209 220 213 206 203 197 200 200 194 199 215 211 201 198 197 194 193 190 189 189 190 193 199 193 198
282 274 289 286 294 281 278 266 254 258 262 275 267 286 244 220 225 225 220 210 215 216 209 208 210 214 205 210 204 198 199 198 198 196 194 197 203 208 202 199 198 197 196 195 195 194 192
291 279 272 280 278 298 288 266 260 254 255 263 265 270 281 231 222 228 224 220 215 219 211 209 204 208 201 210 211 210 205 200 202 202 204 204 201 202 199 196 195 196 198 200 202 204 203
278 284 294 279 276 292 299 273 270 264 257 267 262 262 268 260 229 222 243 230 220 215 224 214 208 206 204 206 204 200 204 203 200 211 210 210 204 204 205 206 207 206 206 207 206 206 207
275 273 287 309 280 270 290 280 280 260 256 258 254 267 259 264 262 249 226 226 218 242 222 217 219 214 211 208 209 206 207 206 205 206 204 202 203 207 210 212 213 212 209 210 211 212 209
282 272 271 317 297 272 269 258 263 265 262 255 251 252 263 259 262 262 242 233 230 239 234 236 218 216 220 210 213 213 210 210 212 212 210 209 209 208 206 208 208 209 208 209 211 209 210
282 276 269 265 275 306 269 276 266 267 269 262 253 261 262 255 253 253 252 247 241 230 225 221 245 245 228 216 219 220 217 219 219 218 217 215 216 216 216 215 212 214 216 218 220 220 221
298 280 271 266 262 260 291 267 281 255 259 265 284 260 251 253 257 257 251 253 242 241 241 231 229 221 227 228 224 243 236 231 223 219 218 220 220 231 233 235 237 234 240 255 239 231 229
292 292 288 275 265 257 257 253 289 278 266 258 255 252 253 263 255 254 259 251 247 249 243 252 262 236 232 230 226 220 220 220 226 226 225 228 226 225 226 224 220 217 221 224 236 237 244
306 290 288 278 278 267 259 251 249 253 261 272 265 258 261 270 270 264 256 260 252 250 250 243 242 241 242 245 252 253 240 239 234 232 231 230 233 234 235 239 239 241 243 248 250 258 260
287 310 297 291 282 271 269 265 257 251 248 245 249 277 267 265 259 259 251 261 259 255 250 248 246 248 247 248 249 244 244 246 245 241 240 244 245 245 245 247 253 259 263 270 270 263 259
307 294 285 294 297 285 280 275 267 263 257 252 248 245 248 241 276 271 266 265 278 264 264 256 257 258 251 253 253 252 250 250 253 259 269 269 272 272 274 268 250 246 248 252 266 286 329
Wind_Speed
46 44 42 45 44 47 49 47 48 50 53 42 39 42 44 43 38 37 37 8 10 25 28 34 45 47 47 41 40 48 49 51 46 47 46 42 50 42 38 37 34 35 35 35 32 31 30
50 46 43 43 46 47 48 50 47 46 47 52 46 39 40 39 36 33 33 23 7 16 25 32 34 43 38 44 42 39 44 47 47 46 44 44 42 40 39 37 36 37 36 37 35 35 34
39 52 51 45 50 50 50 48 49 45 44 43 43 45 36 36 33 31 29 21 8 14 23 31 37 44 43 35 36 44 45 43 35 43 42 42 42 41 39 39 38 38 38 39 38 38 35
45 40 42 46 46 49 49 51 48 50 45 44 43 44 41 33 34 29 27 20 13 17 23 29 35 42 45 36 35 43 45 44 43 38 44 42 44 44 41 42 41 40 40 39 39 41 38
43 41 41 40 49 51 50 52 47 50 47 45 44 41 43 33 35 30 30 20 21 22 29 33 37 36 36 42 36 44 36 43 44 45 41 45 45 45 44 45 42 42 40 40 44 46 45
39 38 32 32 40 51 52 53 50 48 49 45 43 42 41 33 36 31 31 22 22 26 30 34 38 35 40 41 41 40 41 45 44 46 44 45 48 48 49 47 41 39 43 46 49 51 50
31 32 27 31 37 49 53 51 49 48 49 46 44 43 42 34 37 34 34 28 27 28 32 36 38 38 37 41 42 42 42 41 47 48 50 40 51 53 47 43 46 49 52 51 50 53 54
20 18 21 26 33 42 54 51 52 50 51 48 45 45 43 40 38 38 36 34 29 33 35 42 38 40 42 43 44 44 43 48 45 51 51 52 46 50 49 50 51 50 52 55 51 54 56
30 27 17 23 29 38 45 53 53 52 52 50 48 47 45 45 39 41 38 40 34 34 38 40 41 44 46 47 47 46 44 48 46 43 42 55 55 52 52 52 55 55 55 58 56 57 58
29 25 23 21 26 34 41 54 54 53 53 52 50 49 46 47 42 44 43 41 42 36 38 42 44 48 49 52 51 51 50 48 52 54 56 52 43 55 55 56 56 59 59 60 59 60 60
23 22 27 26 30 33 39 46 55 54 57 53 54 50 48 47 50 44 47 44 44 41 37 40 46 51 53 53 56 53 54 53 53 53 53 55 51 57 58 57 57 59 61 62 64 64 63
33 23 29 28 21 27 39 43 48 57 58 57 56 54 51 52 50 47 49 50 46 42 45 45 47 50 54 56 57 57 57 57 57 57 58 58 60 61 63 52 52 60 65 68 68 66 65
32 23 28 29 22 28 25 37 46 53 60 62 60 57 57 54 53 54 50 52 51 47 50 52 55 50 53 54 56 57 57 59 60 61 63 63 65 67 69 69 68 66 73 72 58 72 68
36 25 24 28 29 27 29 27 34 40 59 61 60 59 60 60 58 54 56 52 51 55 55 55 56 56 55 51 53 55 56 59 62 64 66 67 69 70 71 72 72 74 76 77 77 77 76
26 27 27 27 32 28 34 32 32 42 56 64 63 62 64 61 61 59 57 52 53 58 60 59 55 55 57 57 57 56 56 57 60 63 66 67 67 69 70 72 74 74 77 81 81 80 81
26 27 28 27 28 32 35 37 37 43 50 56 65 63 62 63 63 62 61 60 57 60 61 62 61 61 57 58 60 62 61 63 63 63 64 66 68 70 71 74 74 77 79 82 85 83 85
29 24 24 21 24 30 32 35 34 41 37 53 64 67 65 64 64 65 64 64 64 61 62 63 64 66 65 66 63 60 62 67 68 69 58 71 72 75 74 74 78 80 83 86 88 87 86
26 27 21 24 28 28 32 34 32 36 36 40 41 68 66 68 68 67 66 67 67 67 67 63 67 68 69 70 68 68 70 70 67 69 72 75 76 78 80 81 82 84 85 88 90 88 90
25 23 22 19 24 29 38 37 39 40 39 34 45 44 68 67 70 70 70 67 69 70 70 69 69 68 70 70 71 73 73 75 77 78 79 79 78 80 82 84 86 88 89 92 93 94 94
24 23 21 22 24 27 36 40 40 40 40 40 39 42 48 71 69 71 74 73 71 74 74 74 74 73 74 73 73 74 76 78 79 80 82 84 85 87 88 88 90 91 92 94 96 98 100
25 24 24 22 23 23 33 36 44 42 41 40 42 43 44 60 73 72 76 80 75 74 78 77 77 78 78 79 80 81 81 82 84 83 84 85 87 89 89 91 92 94 96 98 101 103 104
29 25 24 24 23 24 26 30 35 38 38 40 43 40 45 48 61 72 75 78 77 86 81 80 82 82 82 83 84 85 85 86 87 88 89 90 90 91 92 93 94 95 97 100 102 104 106
30 27 25 20 22 25 28 30 35 37 39 42 42 44 44 49 52 57 74 79 82 77 83 89 83 83 86 85 87 88 89 89 91 92 93 94 95 96 96 99 100 100 103 105 107 109 111
32 31 28 24 20 24 29 32 34 39 44 45 47 45 48 50 55 58 62 71 79 84 84 83 83 89 93 89 90 92 92 94 96 97 98 99 100 101 102 103 102 105 107 111 114 115 117
28 30 31 29 27 23 24 31 37 38 40 41 44 48 48 51 53 56 60 63 74 78 81 88 89 88 89 90 93 95 98 100 99 99 99 101 102 108 111 111 112 112 114 115 114 114 116
36 32 30 31 31 31 30 30 30 39 40 42 44 46 49 53 55 58 62 67 69 71 75 73 74 87 90 94 96 94 95 96 99 101 103 104 104 106 107 107 104 106 111 114 116 116 121
37 36 36 36 34 33 35 37 37 35 36 41 45 47 49 48 54 59 62 67 71 73 74 76 79 83 85 87 86 88 94 97 100 101 104 105 106 107 107 108 110 112 114 117 118 121 123
37 38 37 38 39 40 40 40 41 42 43 42 42 45 49 50 52 56 58 64 70 73 76 78 80 83 85 87 88 90 91 92 95 98 100 102 103 105 107 109 111 114 116 116 117 118 119
41 39 38 40 41 42 44 47 49 49 48 49 50 50 50 52 55 58 60 63 67 74 79 79 81 83 83 87 89 91 92 94 98 101 101 101 102 103 103 104 106 108 111 115 119 122 112
Wind_Direction
303 281 281 269 256 253 252 251 250 251 256 256 260 262 259 265 267 270 267 272 216 234 191 193 231 230 230 244 246 239 242 246 244 249 249 243 260 252 237 246 240 240 240 246 237 233 231
288 278 274 269 256 249 248 250 250 250 251 257 257 265 264 263 261 267 267 275 201 188 186 190 210 220 252 229 237 245 238 242 244 249 247 249 246 236 241 238 235 241 238 245 239 236 235
288 296 268 262 259 246 244 247 248 249 249 249 252 258 264 257 257 258 264 263 218 192 187 190 196 200 224 252 254 232 234 241 259 244 234 233 238 239 235 234 233 240 238 237 240 238 232
301 281 262 258 256 249 242 241 244 247 247 247 249 250 255 254 250 251 257 253 233 207 196 198 202 204 212 247 257 230 232 236 238 260 227 233 235 234 231 230 232 239 236 240 243 240 234
285 282 267 257 251 248 243 241 242 242 244 244 245 245 249 250 243 243 241 244 228 213 222 204 204 250 238 219 257 224 259 233 227 224 239 228 232 233 231 230 234 239 238 235 241 240 239
293 285 279 260 241 242 242 238 240 239 241 241 242 240 243 245 239 240 235 239 229 221 221 216 210 237 224 224 223 239 235 228 229 225 232 232 230 232 232 231 238 246 240 236 238 243 240
307 277 274 259 241 234 237 238 236 237 235 237 238 237 237 243 236 235 231 237 227 221 219 212 210 225 252 226 223 226 231 256 226 225 225 253 230 232 233 236 236 237 237 236 238 239 244
305 285 265 252 241 235 234 235 236 234 233 234 235 235 234 235 234 231 229 228 228 221 218 249 229 226 230 232 227 229 230 224 241 225 226 232 241 234 233 237 238 244 242 241 240 242 244
306 299 284 262 244 234 233 232 232 233 233 231 232 234 234 233 234 230 228 226 231 225 223 219 218 218 224 227 245 244 232 227 239 257 259 231 235 237 237 238 236 243 242 243 242 243 245
324 290 288 265 249 239 233 230 230 231 233 232 231 233 234 231 230 229 229 228 225 229 225 224 221 220 222 227 231 234 235 230 229 229 230 238 260 241 240 241 241 240 249 244 246 244 246
316 290 279 274 259 242 236 233 228 229 227 231 233 233 232 232 231 228 228 228 227 225 228 226 225 226 225 230 231 234 238 238 237 238 255 243 251 248 247 247 248 248 250 250 248 247 247
291 290 277 276 257 249 239 233 231 229 226 229 229 228 230 232 231 231 228 228 228 228 228 229 230 229 230 230 232 233 235 236 239 240 242 242 246 248 248 258 260 251 247 248 249 250 248
301 287 276 266 265 254 245 236 232 228 226 225 224 225 229 229 232 229 230 228 228 225 229 231 232 233 232 234 234 235 237 239 240 241 243 243 244 246 248 248 248 251 244 248 257 250 251
294 275 264 262 254 247 241 240 236 232 225 225 229 227 226 229 231 232 228 229 230 230 229 231 235 234 235 237 237 238 239 240 240 241 242 244 244 245 246 247 246 247 247 249 249 250 251
274 275 257 260 248 249 240 232 233 232 227 223 225 229 226 230 229 232 231 231 229 230 233 232 236 238 237 237 239 240 240 241 242 243 244 245 245 246 247 248 249 250 249 250 251 252 252
279 262 260 268 249 245 244 242 236 232 231 229 224 227 230 232 229 234 232 230 231 230 231 234 235 237 239 239 238 240 241 243 243 244 246 247 246 249 249 250 252 253 252 252 253 254 255
312 307 273 263 253 251 245 245 241 238 238 230 225 224 230 232 235 232 235 235 235 234 234 234 235 238 240 242 241 243 242 243 245 245 259 248 250 251 251 251 251 252 254 254 255 256 256
310 301 292 261 246 253 236 238 238 239 241 235 233 226 230 231 233 236 237 237 237 240 236 238 237 238 240 243 244 244 245 245 247 248 249 250 250 251 251 252 254 255 255 256 257 258 258
308 302 290 282 249 247 234 233 239 239 241 241 235 234 228 233 234 236 237 239 240 240 242 243 241 240 241 242 244 245 246 248 249 250 250 251 251 252 254 254 255 256 257 258 259 260 260
316 302 296 283 273 246 233 236 240 243 244 241 237 237 235 231 235 235 237 239 240 240 242 245 247 245 247 246 247 247 247 249 250 252 253 254 254 255 256 258 260 260 260 261 261 261 261
322 316 299 284 273 262 233 240 240 248 246 250 242 238 238 233 234 237 235 237 241 244 243 245 246 248 249 248 249 251 250 250 252 254 255 256 257 257 258 259 260 261 263 263 264 264 265
317 315 317 277 271 265 241 239 238 240 248 247 246 245 237 238 235 234 237 239 243 239 243 245 246 248 249 251 251 253 253 254 256 256 258 259 259 259 260 261 262 262 263 264 265 266 267
311 310 311 307 267 263 258 259 244 240 239 241 241 244 244 239 238 236 237 239 240 242 244 245 249 249 251 253 254 255 256 257 257 258 260 261 261 261 262 263 264 265 266 266 267 268 269
304 304 303 300 304 271 261 252 253 249 248 244 243 241 243 242 238 236 238 240 241 243 244 247 245 248 251 254 255 256 258 258 259 260 261 262 264 265 266 266 267 268 268 269 269 269 270
302 295 295 293 289 282 283 264 253 261 256 253 248 245 246 244 245 242 241 241 241 244 246 248 250 254 254 255 255 255 256 258 260 262 263 265 265 266 266 267 268 269 269 270 270 272 273
311 301 290 282 283 281 278 270 268 253 254 252 253 253 253 252 249 246 242 243 244 245 246 248 248 251 253 254 257 260 261 262 262 263 265 266 268 269 270 270 271 271 272 272 273 273 273
304 301 292 292 283 275 271 273 271 267 262 255 255 254 255 252 248 247 249 247 245 246 247 248 250 251 252 254 256 258 259 261 263 264 265 267 268 270 271 272 272 273 273 275 276 276 276
315 298 293 286 281 281 276 271 266 267 266 264 262 256 256 254 252 252 252 251 249 249 249 250 252 254 256 258 258 260 261 263 264 265 266 267 268 269 271 273 274 275 276 277 277 277 277
313 307 302 293 283 276 272 270 270 268 265 262 262 262 260 260 255 255 253 252 252 251 252 255 257 257 259 261 263 264 266 267 268 269 271 273 274 275 276 276 275 275 276 277 279 281 283